Simultaneous Nadir Overpasses (SNOs) Predictions

Prediction of SNOs between LANDSAT-8 and METOP-A Satellite Orbit:

Table of predicted SNOs for the next 14.0 days since TLE Epoch: 4/5/2014
Index Date (LANDSAT-8) Time (LANDSAT-8) Lat,Lon (LANDSAT-8) SZA (LANDSAT-8 ) Date (METOP-A) Time (METOP-A) Lat,Lon (METOP-A) SZA (METOP-A ) Distance(km) Time Diff (sec)
1 04/07/2014 20:36:28 -81.13, 90.27 103.94 04/07/2014 20:36:16 -81.13, 90.21 103.96 1.26 12
2 04/07/2014 21:25:53 81.15,-101.74 76.10 04/07/2014 21:26:54 81.16,-101.56 76.15 3.19 61
3 04/10/2014 15:21:14 81.10, -11.33 74.99 04/10/2014 15:20:00 81.11, -11.18 74.98 2.69 74
4 04/10/2014 16:10:40 -81.13, 156.71 104.96 04/10/2014 16:10:40 -81.13, 156.63 104.98 1.47 0
5 04/10/2014 17:00:05 81.15, -35.33 75.08 04/10/2014 17:01:18 81.16, -35.15 75.13 3.08 73
6 04/13/2014 10:55:24 81.11, 55.21 74.00 04/13/2014 10:54:23 81.11, 55.15 73.97 1.11 61
7 04/13/2014 11:44:50 -81.14,-136.74 105.95 04/13/2014 11:45:02 -81.14,-136.65 105.94 1.42 12
8 04/16/2014 06:29:35 81.10, 121.51 72.99 04/16/2014 06:28:47 81.10, 121.41 72.96 1.84 48
9 04/16/2014 07:19:01 -81.13, -70.42 106.96 04/16/2014 07:19:26 -81.13, -70.40 106.95 0.52 25
10 04/19/2014 02:03:44 81.12,-171.70 72.08 04/19/2014 02:03:09 81.12,-171.67 72.06 0.76 35




NCC Satellite Simultaneous Nadir Overpasses (SNOs) Prediction Service
